| time (UTC) | temp F | wind direction | speed MPH | gust MPH | rain 1hr in | rain 24hr in | rain mn in | humidity % | barometer mb |
| 20260902000812 | 79 | 75 | 0.0 | 0.0 | 0.00 | 0.07 | 0.07 | 92 | 1014.8 |
| 20260902000307 | 79 | 75 | 0.0 | 0.0 | 0.00 | 0.07 | 0.07 | 91 | 1014.6 |
| 20260901235802 | 79 | 75 | 0.0 | 0.0 | 0.00 | 0.07 | 0.07 | 91 | 1014.6 |
| 20260901235257 | 79 | 72 | 0.0 | 0.0 | 0.00 | 0.07 | 0.07 | 91 | 1014.5 |
| 20260901234756 | 79 | 69 | 0.0 | 1.0 | 0.00 | 0.07 | 0.07 | 91 | 1014.5 |
| 20260901234252 | 79 | 72 | 0.0 | 0.0 | 0.00 | 0.07 | 0.07 | 91 | 1014.5 |
| 20260901233746 | 79 | 74 | 0.0 | 0.0 | 0.00 | 0.07 | 0.07 | 91 | 1014.4 |
| 20260901233242 | 80 | 69 | 0.0 | 0.0 | 0.00 | 0.07 | 0.07 | 90 | 1014.1 |
| 20260901232742 | 80 | 74 | 0.0 | 0.0 | 0.00 | 0.07 | 0.07 | 89 | 1014.1 |
| 20260901232232 | 80 | 68 | 0.0 | 0.0 | 0.00 | 0.07 | 0.07 | 89 | 1013.8 |
| 20260901231728 | 80 | 105 | 0.0 | 0.0 | 0.00 | 0.07 | 0.07 | 89 | 1013.7 |
| 20260901231224 | 80 | 86 | 0.0 | 0.0 | 0.00 | 0.07 | 0.07 | 89 | 1014.0 |
| 20260901230720 | 79 | 89 | 0.0 | 1.0 | 0.00 | 0.07 | 0.07 | 89 | 1013.9 |
| 20260901230219 | 80 | 84 | 1.0 | 1.0 | 0.00 | 0.07 | 0.07 | 89 | 1014.2 |
| 20260901225714 | 80 | 106 | 1.0 | 1.0 | 0.00 | 0.07 | 0.07 | 88 | 1014.5 |
| 20260901225209 | 80 | 92 | 0.0 | 0.0 | 0.00 | 0.07 | 0.07 | 87 | 1014.6 |
| 20260901224705 | 80 | 88 | 0.0 | 0.0 | 0.00 | 0.07 | 0.07 | 87 | 1014.5 |
| 20260901224201 | 80 | 106 | 0.0 | 1.0 | 0.00 | 0.07 | 0.07 | 87 | 1014.8 |
| 20260901223657 | 80 | 88 | 0.0 | 1.0 | 0.00 | 0.07 | 0.07 | 89 | 1015.0 |
| 20260901223157 | 80 | 73 | 0.0 | 1.0 | 0.00 | 0.07 | 0.07 | 87 | 1014.9 |
| 20260901222653 | 80 | 349 | 3.0 | 3.0 | 0.00 | 0.07 | 0.07 | 88 | 1014.8 |
| 20260901222149 | 81 | 68 | 0.0 | 0.0 | 0.00 | 0.07 | 0.07 | 88 | 1014.8 |
| 20260901221645 | 80 | 78 | 0.0 | 0.0 | 0.00 | 0.07 | 0.07 | 89 | 1014.7 |
| 20260901221140 | 80 | 92 | 0.0 | 1.0 | 0.00 | 0.07 | 0.07 | 89 | 1014.8 |
| 20260901220639 | 79 | 81 | 0.0 | 0.0 | 0.00 | 0.07 | 0.07 | 89 | 1014.6 |
| 20260901220139 | 79 | 91 | 1.0 | 1.0 | 0.00 | 0.07 | 0.07 | 89 | 1014.7 |
| 20260901215638 | 78 | 90 | 0.0 | 0.0 | 0.00 | 0.07 | 0.07 | 90 | 1014.8 |
| 20260901215133 | 78 | 77 | 0.0 | 0.0 | 0.00 | 0.07 | 0.07 | 90 | 1015.0 |
| 20260901214631 | 78 | 83 | 0.0 | 0.0 | 0.00 | 0.07 | 0.07 | 89 | 1014.7 |
| 20260901214130 | 78 | 126 | 0.0 | 1.0 | 0.00 | 0.07 | 0.07 | 89 | 1014.8 |
| 20260901213625 | 79 | 338 | 1.0 | 1.0 | 0.00 | 0.07 | 0.07 | 91 | 1014.9 |
| 20260901213119 | 78 | 74 | 0.0 | 1.0 | 0.00 | 0.07 | 0.07 | 92 | 1014.7 |
| 20260901212613 | 78 | 75 | 0.0 | 0.0 | 0.00 | 0.07 | 0.07 | 91 | 1014.9 |
| 20260901212110 | 78 | 62 | 0.0 | 0.0 | 0.00 | 0.07 | 0.07 | 90 | 1015.0 |
| 20260901211604 | 78 | 62 | 0.0 | 0.0 | 0.00 | 0.07 | 0.07 | 89 | 1015.0 |
| 20260901211101 | 79 | 25 | 3.0 | 3.0 | 0.05 | 0.07 | 0.07 | 89 | 1015.2 |
| 20260901210556 | 79 | 85 | 2.0 | 2.0 | 0.05 | 0.07 | 0.07 | 90 | 1015.0 |
| 20260901210052 | 79 | 51 | 1.0 | 1.0 | 0.00 | 0.06 | 0.06 | 91 | 1014.8 |
| 20260901205547 | 79 | 36 | 2.0 | 2.0 | 0.00 | 0.06 | 0.06 | 92 | 1014.9 |
| 20260901205041 | 79 | 73 | 1.0 | 1.0 | 0.07 | 0.06 | 0.06 | 92 | 1014.7 |
| 20260901204538 | 79 | 55 | 0.0 | 1.0 | 0.07 | 0.06 | 0.06 | 92 | 1014.7 |
| 20260901204033 | 79 | 131 | 2.0 | 2.0 | 0.00 | 0.05 | 0.05 | 91 | 1014.9 |
| 20260901203533 | 79 | 211 | 1.0 | 1.0 | 0.00 | 0.05 | 0.05 | 92 | 1015.1 |
| 20260901203028 | 80 | 81 | 1.0 | 1.0 | 0.00 | 0.05 | 0.05 | 92 | 1014.8 |
| 20260901202522 | 80 | 85 | 0.0 | 0.0 | 0.17 | 0.05 | 0.05 | 92 | 1014.9 |
| 20260901202019 | 81 | 86 | 0.0 | 1.0 | 0.28 | 0.05 | 0.05 | 91 | 1015.0 |
| 20260901201514 | 82 | 86 | 0.0 | 0.0 | 0.00 | 0.00 | 0.00 | 89 | 1015.2 |
| 20260901201009 | 82 | 222 | 2.0 | 2.0 | 0.00 | 0.00 | 0.00 | 89 | 1015.8 |
| 20260901200509 | 82 | 95 | 0.0 | 1.0 | 0.00 | 0.00 | 0.00 | 89 | 1015.7 |
| 20260901200008 | 83 | 109 | 1.0 | 1.0 | 0.00 | 0.00 | 0.00 | 87 | 1015.0 |
| 20260901195506 | 83 | 169 | 3.0 | 3.0 | 0.00 | 0.00 | 0.00 | 84 | 1015.0 |
| 20260901195005 | 84 | 49 | 2.0 | 2.0 | 0.00 | 0.00 | 0.00 | 82 | 1015.1 |
| 20260901194501 | 84 | 78 | 1.0 | 1.0 | 0.00 | 0.00 | 0.00 | 82 | 1014.9 |
| 20260901193957 | 84 | 174 | 2.0 | 2.0 | 0.00 | 0.00 | 0.00 | 83 | 1015.0 |
| 20260901193456 | 84 | 117 | 2.0 | 2.0 | 0.00 | 0.00 | 0.00 | 83 | 1015.1 |
| 20260901192956 | 85 | 234 | 2.0 | 3.0 | 0.00 | 0.00 | 0.00 | 82 | 1015.7 |
| 20260901192452 | 85 | 27 | 2.0 | 2.0 | 0.00 | 0.00 | 0.00 | 81 | 1015.7 |
| 20260901191948 | 85 | 71 | 2.0 | 5.0 | 0.00 | 0.00 | 0.00 | 80 | 1015.6 |
| 20260901191443 | 87 | 168 | 4.0 | 7.0 | 0.00 | 0.00 | 0.00 | 76 | 1015.6 |
| 20260901190939 | 87 | 98 | 3.0 | 3.0 | 0.00 | 0.00 | 0.00 | 76 | 1015.4 |
| 20260901190434 | 86 | 134 | 2.0 | 2.0 | 0.00 | 0.00 | 0.00 | 78 | 1015.4 |
| 20260901185932 | 86 | 99 | 2.0 | 2.0 | 0.00 | 0.00 | 0.00 | 78 | 1015.3 |
| 20260901185431 | 86 | 131 | 3.0 | 5.0 | 0.00 | 0.00 | 0.00 | 77 | 1015.2 |
| 20260901184926 | 86 | 208 | 1.0 | 2.0 | 0.00 | 0.00 | 0.00 | 76 | 1015.2 |
| 20260901184421 | 87 | 226 | 2.0 | 3.0 | 0.00 | 0.00 | 0.00 | 75 | 1015.1 |
| 20260901183917 | 87 | 117 | 4.0 | 5.0 | 0.00 | 0.00 | 0.00 | 77 | 1015.3 |
| 20260901183416 | 87 | 118 | 1.0 | 1.0 | 0.00 | 0.00 | 0.00 | 79 | 1015.2 |
| 20260901182912 | 86 | 225 | 2.0 | 2.0 | 0.00 | 0.00 | 0.00 | 81 | 1015.1 |
| 20260901182407 | 86 | 151 | 3.0 | 3.0 | 0.00 | 0.00 | 0.00 | 80 | 1015.3 |
| 20260901181902 | 86 | 165 | 2.0 | 2.0 | 0.00 | 0.00 | 0.00 | 80 | 1015.3 |
| 20260901181357 | 87 | 37 | 1.0 | 1.0 | 0.00 | 0.00 | 0.00 | 79 | 1015.3 |
| 20260901180855 | 87 | 93 | 2.0 | 3.0 | 0.00 | 0.00 | 0.00 | 79 | 1015.1 |
| 20260901180355 | 88 | 38 | 1.0 | 2.0 | 0.00 | 0.00 | 0.00 | 79 | 1015.3 |
| 20260901175853 | 88 | 123 | 4.0 | 6.0 | 0.00 | 0.00 | 0.00 | 76 | 1015.0 |
| 20260901175348 | 87 | 72 | 0.0 | 1.0 | 0.00 | 0.00 | 0.00 | 79 | 1015.3 |
| 20260901174843 | 87 | 28 | 2.0 | 3.0 | 0.00 | 0.00 | 0.00 | 80 | 1015.2 |
| 20260901174339 | 85 | 128 | 2.0 | 2.0 | 0.00 | 0.00 | 0.00 | 81 | 1015.3 |
| 20260901173835 | 86 | 84 | 0.0 | 1.0 | 0.00 | 0.00 | 0.00 | 83 | 1015.6 |
| 20260901173329 | 86 | 136 | 2.0 | 2.0 | 0.00 | 0.00 | 0.00 | 82 | 1015.7 |
| 20260901172826 | 87 | 262 | 2.0 | 2.0 | 0.00 | 0.00 | 0.00 | 80 | 1015.6 |
| 20260901172325 | 86 | 21 | 2.0 | 2.0 | 0.00 | 0.00 | 0.00 | 82 | 1015.7 |
| 20260901171823 | 85 | 82 | 1.0 | 1.0 | 0.00 | 0.00 | 0.00 | 85 | 1015.8 |
| 20260901171323 | 85 | 312 | 3.0 | 5.0 | 0.00 | 0.00 | 0.00 | 84 | 1015.9 |
| 20260901170822 | 85 | 47 | 1.0 | 1.0 | 0.00 | 0.00 | 0.00 | 84 | 1015.7 |
| 20260901170317 | 85 | 138 | 3.0 | 3.0 | 0.00 | 0.00 | 0.00 | 84 | 1015.9 |
| 20260901165816 | 86 | 114 | 2.0 | 2.0 | 0.00 | 0.00 | 0.00 | 84 | 1015.8 |
| 20260901165310 | 86 | 105 | 3.0 | 3.0 | 0.00 | 0.00 | 0.00 | 83 | 1015.8 |
| 20260901164807 | 85 | 87 | 0.0 | 1.0 | 0.00 | 0.00 | 0.00 | 84 | 1015.7 |
| 20260901164302 | 85 | 20 | 0.0 | 1.0 | 0.00 | 0.00 | 0.00 | 86 | 1015.8 |
| 20260901163756 | 84 | 128 | 0.0 | 0.0 | 0.00 | 0.00 | 0.00 | 87 | 1015.8 |
| 20260901163250 | 83 | 116 | 1.0 | 1.0 | 0.00 | 0.00 | 0.00 | 87 | 1015.8 |
| 20260901162745 | 83 | 93 | 0.0 | 0.0 | 0.00 | 0.00 | 0.00 | 87 | 1015.4 |
| 20260901162245 | 83 | 81 | 1.0 | 1.0 | 0.00 | 0.00 | 0.00 | 86 | 1015.3 |
| 20260901161743 | 84 | 81 | 1.0 | 1.0 | 0.00 | 0.00 | 0.00 | 85 | 1015.8 |
| 20260901161238 | 84 | 87 | 1.0 | 1.0 | 0.00 | 0.00 | 0.00 | 86 | 1016.0 |
| 20260901160734 | 83 | 95 | 1.0 | 1.0 | 0.00 | 0.00 | 0.00 | 88 | 1016.5 |
| 20260901160230 | 83 | 77 | 1.0 | 1.0 | 0.00 | 0.00 | 0.00 | 87 | 1016.0 |
| 20260901155728 | 83 | 113 | 1.0 | 1.0 | 0.00 | 0.00 | 0.00 | 87 | 1016.3 |
| 20260901155224 | 84 | 244 | 2.0 | 2.0 | 0.00 | 0.00 | 0.00 | 85 | 1016.0 |
| 20260901154719 | 84 | 161 | 3.0 | 3.0 | 0.00 | 0.00 | 0.00 | 84 | 1015.8 |
| 20260901154215 | 83 | 72 | 0.0 | 0.0 | 0.00 | 0.00 | 0.00 | 86 | 1015.9 |
| 20260901153709 | 83 | 108 | 1.0 | 1.0 | 0.00 | 0.00 | 0.00 | 86 | 1016.0 |
| 20260901153203 | 83 | 23 | 2.0 | 2.0 | 0.00 | 0.00 | 0.00 | 86 | 1015.8 |
| 20260901152658 | 83 | 56 | 2.0 | 2.0 | 0.00 | 0.00 | 0.00 | 85 | 1015.8 |
| 20260901152156 | 84 | 75 | 0.0 | 0.0 | 0.00 | 0.00 | 0.00 | 85 | 1015.8 |
| 20260901151653 | 84 | 80 | 0.0 | 0.0 | 0.00 | 0.00 | 0.00 | 85 | 1015.8 |
| 20260901151151 | 84 | 80 | 0.0 | 0.0 | 0.00 | 0.00 | 0.00 | 84 | 1015.8 |
| 20260901150651 | 84 | 109 | 0.0 | 1.0 | 0.00 | 0.00 | 0.00 | 84 | 1016.0 |
| 20260901150149 | 84 | 113 | 1.0 | 2.0 | 0.00 | 0.00 | 0.00 | 83 | 1015.7 |
| 20260901145648 | 84 | 81 | 0.0 | 1.0 | 0.00 | 0.00 | 0.00 | 83 | 1016.0 |
| 20260901145148 | 83 | 77 | 0.0 | 0.0 | 0.00 | 0.00 | 0.00 | 86 | 1015.8 |
| 20260901144643 | 82 | 75 | 0.0 | 0.0 | 0.00 | 0.00 | 0.00 | 87 | 1015.9 |
| 20260901144138 | 82 | 80 | 0.0 | 0.0 | 0.00 | 0.00 | 0.00 | 86 | 1015.9 |
| 20260901143633 | 82 | 79 | 0.0 | 0.0 | 0.00 | 0.00 | 0.00 | 86 | 1015.9 |
| 20260901143130 | 82 | 61 | 1.0 | 1.0 | 0.00 | 0.00 | 0.00 | 86 | 1015.8 |
| 20260901142626 | 82 | 11 | 2.0 | 2.0 | 0.00 | 0.00 | 0.00 | 86 | 1016.0 |
| 20260901142125 | 81 | 356 | 1.0 | 2.0 | 0.00 | 0.00 | 0.00 | 86 | 1015.9 |
| 20260901141620 | 80 | 95 | 1.0 | 1.0 | 0.00 | 0.00 | 0.00 | 88 | 1016.0 |
| 20260901141114 | 80 | 35 | 1.0 | 1.0 | 0.00 | 0.00 | 0.00 | 88 | 1016.1 |
| 20260901140613 | 79 | 106 | 2.0 | 2.0 | 0.00 | 0.00 | 0.00 | 88 | 1015.8 |
| 20260901140113 | 79 | 257 | 1.0 | 2.0 | 0.00 | 0.00 | 0.00 | 89 | 1016.1 |
| 20260901135612 | 79 | 27 | 1.0 | 1.0 | 0.00 | 0.00 | 0.00 | 89 | 1016.0 |
| 20260901135108 | 78 | 78 | 0.0 | 0.0 | 0.00 | 0.00 | 0.00 | 90 | 1015.8 |
| 20260901134603 | 78 | 98 | 0.0 | 0.0 | 0.00 | 0.00 | 0.00 | 91 | 1016.0 |
| 20260901134058 | 77 | 28 | 0.0 | 0.0 | 0.00 | 0.00 | 0.00 | 91 | 1015.8 |
| 20260901133557 | 77 | 80 | 0.0 | 1.0 | 0.00 | 0.00 | 0.00 | 92 | 1016.0 |
| 20260901133056 | 77 | 46 | 0.0 | 0.0 | 0.00 | 0.00 | 0.00 | 92 | 1015.8 |
| 20260901132551 | 76 | 106 | 1.0 | 1.0 | 0.00 | 0.00 | 0.00 | 92 | 1016.0 |
| 20260901132050 | 76 | 96 | 0.0 | 1.0 | 0.00 | 0.00 | 0.00 | 93 | 1016.0 |
| 20260901131544 | 75 | 96 | 0.0 | 0.0 | 0.00 | 0.00 | 0.00 | 94 | 1015.8 |
| 20260901131034 | 75 | 176 | 1.0 | 2.0 | 0.00 | 0.00 | 0.00 | 95 | 1016.0 |
| 20260901130534 | 75 | 95 | 1.0 | 1.0 | 0.00 | 0.00 | 0.00 | 96 | 1015.8 |
| 20260901130033 | 74 | 106 | 1.0 | 1.0 | 0.00 | 0.00 | 0.00 | 96 | 1015.7 |
| 20260901125531 | 73 | 79 | 0.0 | 0.0 | 0.00 | 0.00 | 0.00 | 97 | 1016.1 |
| 20260901125027 | 73 | 91 | 0.0 | 0.0 | 0.00 | 0.00 | 0.00 | 97 | 1015.9 |
| 20260901124522 | 73 | 81 | 0.0 | 0.0 | 0.00 | 0.00 | 0.00 | 97 | 1015.9 |
| 20260901124021 | 73 | 82 | 0.0 | 0.0 | 0.00 | 0.00 | 0.00 | 97 | 1016.1 |
| 20260901123516 | 73 | 96 | 0.0 | 0.0 | 0.00 | 0.00 | 0.00 | 97 | 1015.9 |
| 20260901123016 | 73 | 80 | 0.0 | 0.0 | 0.00 | 0.00 | 0.00 | 98 | 1015.9 |
| 20260901122514 | 73 | 105 | 0.0 | 0.0 | 0.00 | 0.00 | 0.00 | 98 | 1015.8 |
| 20260901122014 | 73 | 80 | 0.0 | 0.0 | 0.00 | 0.00 | 0.00 | 98 | 1015.7 |
| 20260901121509 | 72 | 93 | 0.0 | 0.0 | 0.00 | 0.00 | 0.00 | 98 | 1015.7 |
| 20260901121004 | 72 | 79 | 0.0 | 0.0 | 0.00 | 0.00 | 0.00 | 98 | 1015.4 |
| 20260901120503 | 72 | 95 | 0.0 | 0.0 | 0.00 | 0.00 | 0.00 | 98 | 1015.6 |
| 20260901115959 | 72 | 86 | 0.0 | 0.0 | 0.00 | 0.00 | 0.00 | 98 | 1015.7 |
| 20260901115454 | 72 | 90 | 0.0 | 0.0 | 0.00 | 0.00 | 0.00 | 98 | 1015.4 |
| 20260901114952 | 72 | 92 | 0.0 | 0.0 | 0.00 | 0.00 | 0.00 | 98 | 1015.4 |
| 20260901114447 | 72 | 84 | 0.0 | 0.0 | 0.00 | 0.00 | 0.00 | 98 | 1015.1 |
| 20260901113945 | 72 | 100 | 0.0 | 0.0 | 0.00 | 0.00 | 0.00 | 98 | 1015.1 |
| 20260901113444 | 72 | 87 | 0.0 | 0.0 | 0.00 | 0.00 | 0.00 | 98 | 1015.0 |
| 20260901112939 | 72 | 82 | 0.0 | 0.0 | 0.00 | 0.00 | 0.00 | 98 | 1014.9 |
| 20260901112434 | 71 | 87 | 0.0 | 0.0 | 0.00 | 0.00 | 0.00 | 98 | 1014.8 |
| 20260901111924 | 71 | 85 | 0.0 | 0.0 | 0.00 | 0.00 | 0.00 | 98 | 1015.0 |
| 20260901111422 | 71 | 96 | 0.0 | 0.0 | 0.00 | 0.00 | 0.00 | 98 | 1014.6 |
| 20260901110921 | 71 | 86 | 0.0 | 0.0 | 0.00 | 0.00 | 0.00 | 98 | 1014.9 |
| 20260901110417 | 71 | 87 | 0.0 | 0.0 | 0.00 | 0.00 | 0.00 | 98 | 1014.7 |
| 20260901105913 | 71 | 84 | 0.0 | 0.0 | 0.00 | 0.00 | 0.00 | 98 | 1014.3 |
| 20260901105408 | 72 | 84 | 0.0 | 0.0 | 0.00 | 0.00 | 0.00 | 98 | 1014.5 |
| 20260901104904 | 71 | 84 | 0.0 | 0.0 | 0.00 | 0.00 | 0.00 | 97 | 1014.9 |
| 20260901104359 | 72 | 92 | 0.0 | 0.0 | 0.00 | 0.00 | 0.00 | 97 | 1014.7 |
| 20260901103854 | 72 | 82 | 0.0 | 0.0 | 0.00 | 0.00 | 0.00 | 98 | 1014.7 |
| 20260901103348 | 72 | 87 | 0.0 | 0.0 | 0.00 | 0.00 | 0.00 | 98 | 1014.5 |
| 20260901102843 | 72 | 41 | 0.0 | 0.0 | 0.00 | 0.00 | 0.00 | 98 | 1014.6 |
| 20260901102338 | 72 | 95 | 0.0 | 0.0 | 0.00 | 0.00 | 0.00 | 97 | 1014.6 |
| 20260901101834 | 72 | 88 | 0.0 | 0.0 | 0.00 | 0.00 | 0.00 | 97 | 1014.5 |
| 20260901101333 | 71 | 87 | 0.0 | 0.0 | 0.00 | 0.00 | 0.00 | 97 | 1014.7 |
| 20260901100833 | 72 | 80 | 0.0 | 0.0 | 0.00 | 0.00 | 0.00 | 97 | 1014.6 |
| 20260901100328 | 72 | 88 | 0.0 | 0.0 | 0.00 | 0.00 | 0.00 | 97 | 1014.7 |
| 20260901095827 | 72 | 87 | 0.0 | 0.0 | 0.00 | 0.00 | 0.00 | 97 | 1014.7 |
| 20260901095324 | 72 | 85 | 0.0 | 0.0 | 0.00 | 0.00 | 0.00 | 97 | 1014.6 |
| 20260901094818 | 72 | 87 | 0.0 | 0.0 | 0.00 | 0.00 | 0.00 | 97 | 1014.9 |
| 20260901094313 | 72 | 81 | 0.0 | 0.0 | 0.00 | 0.00 | 0.00 | 97 | 1014.7 |
| 20260901093808 | 72 | 88 | 0.0 | 0.0 | 0.00 | 0.00 | 0.00 | 97 | 1014.7 |
| 20260901093307 | 72 | 88 | 0.0 | 0.0 | 0.00 | 0.00 | 0.00 | 97 | 1014.4 |
| 20260901092803 | 72 | 87 | 0.0 | 0.0 | 0.00 | 0.00 | 0.00 | 97 | 1014.5 |
| 20260901092259 | 72 | 82 | 0.0 | 0.0 | 0.00 | 0.00 | 0.00 | 97 | 1014.6 |
| 20260901091755 | 72 | 86 | 0.0 | 0.0 | 0.00 | 0.00 | 0.00 | 97 | 1014.5 |
| 20260901091249 | 72 | 84 | 0.0 | 0.0 | 0.00 | 0.00 | 0.00 | 97 | 1014.5 |
| 20260901090744 | 72 | 88 | 0.0 | 0.0 | 0.00 | 0.00 | 0.00 | 97 | 1014.4 |
| 20260901090239 | 72 | 88 | 0.0 | 0.0 | 0.00 | 0.00 | 0.00 | 97 | 1014.3 |
| 20260901085735 | 72 | 88 | 0.0 | 0.0 | 0.00 | 0.00 | 0.00 | 97 | 1014.3 |
| 20260901085230 | 72 | 81 | 0.0 | 0.0 | 0.00 | 0.00 | 0.00 | 97 | 1014.5 |
| 20260901084727 | 72 | 80 | 0.0 | 0.0 | 0.00 | 0.00 | 0.00 | 97 | 1014.7 |
| 20260901084222 | 72 | 80 | 0.0 | 0.0 | 0.00 | 0.00 | 0.00 | 97 | 1014.6 |
| 20260901083717 | 72 | 86 | 0.0 | 0.0 | 0.00 | 0.00 | 0.00 | 97 | 1014.4 |
| 20260901083216 | 72 | 80 | 0.0 | 0.0 | 0.00 | 0.00 | 0.00 | 96 | 1014.3 |
| 20260901082715 | 72 | 84 | 0.0 | 0.0 | 0.00 | 0.00 | 0.00 | 96 | 1014.3 |
| 20260901082211 | 72 | 88 | 0.0 | 0.0 | 0.00 | 0.00 | 0.00 | 96 | 1014.4 |
| 20260901081707 | 72 | 82 | 0.0 | 0.0 | 0.00 | 0.00 | 0.00 | 96 | 1014.3 |
| 20260901081206 | 72 | 86 | 0.0 | 0.0 | 0.00 | 0.00 | 0.00 | 96 | 1014.5 |
| 20260901080701 | 72 | 88 | 0.0 | 0.0 | 0.00 | 0.00 | 0.00 | 96 | 1014.5 |
| 20260901080159 | 72 | 86 | 0.0 | 0.0 | 0.00 | 0.00 | 0.00 | 96 | 1014.5 |
| 20260901075654 | 73 | 79 | 0.0 | 0.0 | 0.00 | 0.00 | 0.00 | 96 | 1014.6 |
| 20260901075149 | 72 | 79 | 0.0 | 0.0 | 0.00 | 0.00 | 0.00 | 96 | 1014.4 |
| 20260901074648 | 73 | 79 | 0.0 | 0.0 | 0.00 | 0.00 | 0.00 | 96 | 1014.4 |
| 20260901074144 | 73 | 103 | 0.0 | 0.0 | 0.00 | 0.00 | 0.00 | 96 | 1014.3 |
| 20260901073640 | 73 | 86 | 0.0 | 0.0 | 0.00 | 0.00 | 0.00 | 96 | 1014.3 |
| 20260901073136 | 73 | 93 | 0.0 | 0.0 | 0.00 | 0.00 | 0.00 | 96 | 1014.4 |
| 20260901072630 | 73 | 87 | 0.0 | 0.0 | 0.00 | 0.00 | 0.00 | 96 | 1014.3 |
| 20260901072125 | 73 | 109 | 0.0 | 0.0 | 0.00 | 0.00 | 0.00 | 96 | 1014.2 |
| 20260901071625 | 73 | 80 | 0.0 | 1.0 | 0.00 | 0.00 | 0.00 | 96 | 1014.5 |
| 20260901071124 | 73 | 73 | 0.0 | 1.0 | 0.00 | 0.00 | 0.00 | 96 | 1014.6 |
| 20260901070619 | 73 | 85 | 0.0 | 0.0 | 0.00 | 0.00 | 0.00 | 96 | 1014.5 |
| 20260901070114 | 73 | 113 | 0.0 | 1.0 | 0.00 | 0.00 | 0.00 | 96 | 1014.3 |
| 20260901065608 | 73 | 76 | 0.0 | 0.0 | 0.00 | 0.00 | 0.00 | 96 | 1014.7 |
| 20260901065103 | 73 | 83 | 0.0 | 0.0 | 0.00 | 0.00 | 0.00 | 96 | 1014.5 |
| 20260901064600 | 73 | 85 | 0.0 | 0.0 | 0.00 | 0.00 | 0.00 | 96 | 1014.6 |
| 20260901064056 | 73 | 88 | 0.0 | 0.0 | 0.00 | 0.00 | 0.00 | 95 | 1014.3 |
| 20260901063553 | 73 | 64 | 0.0 | 0.0 | 0.00 | 0.00 | 0.00 | 95 | 1014.4 |
| 20260901063049 | 73 | 79 | 0.0 | 0.0 | 0.00 | 0.00 | 0.00 | 95 | 1014.6 |
| 20260901062544 | 73 | 80 | 0.0 | 0.0 | 0.00 | 0.00 | 0.00 | 95 | 1014.4 |
| 20260901062040 | 73 | 81 | 0.0 | 0.0 | 0.00 | 0.00 | 0.00 | 95 | 1014.4 |
| 20260901061537 | 73 | 80 | 0.0 | 0.0 | 0.00 | 0.00 | 0.00 | 95 | 1014.4 |
| 20260901061036 | 73 | 80 | 0.0 | 0.0 | 0.00 | 0.00 | 0.00 | 95 | 1014.4 |
| 20260901060531 | 73 | 86 | 0.0 | 0.0 | 0.00 | 0.00 | 0.00 | 95 | 1014.4 |
| 20260901060026 | 73 | 237 | 0.0 | 1.0 | 0.00 | 0.00 | 0.00 | 95 | 1014.5 |
| 20260901055521 | 74 | 81 | 0.0 | 0.0 | 0.00 | 0.00 | 0.00 | 95 | 1014.2 |
| 20260901055018 | 74 | 87 | 0.0 | 0.0 | 0.00 | 0.00 | 0.00 | 95 | 1014.5 |
| 20260901054515 | 74 | 122 | 0.0 | 0.0 | 0.00 | 0.00 | 0.00 | 95 | 1014.4 |
| 20260901054011 | 74 | 85 | 0.0 | 0.0 | 0.00 | 0.00 | 0.00 | 95 | 1014.5 |
| 20260901053506 | 74 | 85 | 0.0 | 0.0 | 0.00 | 0.00 | 0.00 | 95 | 1014.5 |
| 20260901053002 | 74 | 79 | 0.0 | 0.0 | 0.00 | 0.00 | 0.00 | 94 | 1014.3 |
| 20260901052458 | 74 | 95 | 0.0 | 0.0 | 0.00 | 0.00 | 0.00 | 94 | 1014.3 |
| 20260901051956 | 74 | 81 | 0.0 | 0.0 | 0.00 | 0.00 | 0.00 | 94 | 1014.4 |
| 20260901051452 | 74 | 66 | 0.0 | 0.0 | 0.00 | 0.00 | 0.00 | 94 | 1014.4 |
| 20260901050951 | 74 | 72 | 0.0 | 0.0 | 0.00 | 0.00 | 0.00 | 94 | 1014.5 |
| 20260901050447 | 74 | 87 | 0.0 | 0.0 | 0.00 | 0.00 | 0.00 | 94 | 1014.5 |
| 20260901045946 | 75 | 88 | 1.0 | 1.0 | 0.00 | 0.29 | 0.29 | 94 | 1014.4 |
| 20260901045442 | 75 | 88 | 1.0 | 1.0 | 0.00 | 0.29 | 0.29 | 94 | 1014.5 |
| 20260901044937 | 75 | 83 | 0.0 | 0.0 | 0.00 | 0.29 | 0.29 | 94 | 1014.6 |
| 20260901044432 | 75 | 90 | 0.0 | 0.0 | 0.00 | 0.29 | 0.29 | 94 | 1014.6 |
| 20260901043928 | 75 | 82 | 0.0 | 0.0 | 0.00 | 0.29 | 0.29 | 94 | 1014.7 |
| 20260901043424 | 75 | 57 | 0.0 | 1.0 | 0.00 | 0.29 | 0.29 | 94 | 1014.5 |
| 20260901042918 | 75 | 82 | 0.0 | 0.0 | 0.00 | 0.29 | 0.29 | 94 | 1014.5 |
| 20260901042413 | 75 | 75 | 0.0 | 0.0 | 0.00 | 0.29 | 0.29 | 94 | 1014.6 |
| 20260901041909 | 75 | 82 | 0.0 | 0.0 | 0.00 | 0.29 | 0.29 | 94 | 1014.6 |
| 20260901041408 | 75 | 80 | 0.0 | 0.0 | 0.00 | 0.29 | 0.29 | 93 | 1014.6 |
| 20260901040908 | 75 | 17 | 0.0 | 0.0 | 0.00 | 0.29 | 0.29 | 93 | 1014.3 |
| 20260901040408 | 75 | 88 | 0.0 | 0.0 | 0.00 | 0.29 | 0.29 | 93 | 1014.7 |
| 20260901035902 | 75 | 205 | 1.0 | 1.0 | 0.00 | 0.29 | 0.29 | 93 | 1014.5 |
| 20260901035401 | 75 | 86 | 0.0 | 0.0 | 0.00 | 0.29 | 0.29 | 93 | 1014.7 |
| 20260901034859 | 75 | 76 | 0.0 | 1.0 | 0.00 | 0.29 | 0.29 | 93 | 1014.7 |
| 20260901034354 | 75 | 80 | 0.0 | 0.0 | 0.00 | 0.29 | 0.29 | 93 | 1014.8 |
| 20260901033849 | 76 | 136 | 1.0 | 1.0 | 0.00 | 0.29 | 0.29 | 93 | 1014.6 |
| 20260901033348 | 76 | 85 | 0.0 | 0.0 | 0.00 | 0.29 | 0.29 | 93 | 1014.8 |
| 20260901032847 | 76 | 184 | 1.0 | 1.0 | 0.00 | 0.29 | 0.29 | 93 | 1014.7 |
| 20260901032346 | 76 | 117 | 0.0 | 1.0 | 0.00 | 0.29 | 0.29 | 93 | 1014.7 |
| 20260901031842 | 76 | 79 | 0.0 | 0.0 | 0.00 | 0.29 | 0.29 | 92 | 1014.7 |
| 20260901031338 | 76 | 83 | 0.0 | 0.0 | 0.00 | 0.29 | 0.29 | 92 | 1014.6 |
| 20260901030837 | 76 | 78 | 0.0 | 0.0 | 0.00 | 0.29 | 0.29 | 92 | 1014.6 |
| 20260901030333 | 76 | 83 | 0.0 | 0.0 | 0.00 | 0.29 | 0.29 | 92 | 1014.5 |
| 20260901025832 | 76 | 83 | 0.0 | 0.0 | 0.00 | 0.29 | 0.29 | 91 | 1014.8 |
| 20260901025326 | 77 | 84 | 0.0 | 0.0 | 0.00 | 0.29 | 0.29 | 91 | 1014.6 |
| 20260901024816 | 77 | 97 | 0.0 | 1.0 | 0.00 | 0.29 | 0.29 | 91 | 1014.8 |
| 20260901024315 | 77 | 147 | 1.0 | 1.0 | 0.00 | 0.29 | 0.29 | 91 | 1014.9 |
| 20260901023813 | 77 | 90 | 0.0 | 0.0 | 0.00 | 0.29 | 0.29 | 91 | 1014.9 |
| 20260901023308 | 77 | 147 | 1.0 | 1.0 | 0.00 | 0.29 | 0.29 | 91 | 1014.7 |
| 20260901022804 | 77 | 88 | 0.0 | 0.0 | 0.00 | 0.29 | 0.29 | 91 | 1014.7 |
| 20260901022300 | 77 | 66 | 0.0 | 1.0 | 0.00 | 0.29 | 0.29 | 91 | 1014.9 |
| 20260901021754 | 77 | 74 | 0.0 | 1.0 | 0.00 | 0.29 | 0.29 | 90 | 1014.8 |
| 20260901021250 | 77 | 96 | 0.0 | 0.0 | 0.00 | 0.29 | 0.29 | 90 | 1014.7 |
| 20260901020745 | 77 | 137 | 0.0 | 1.0 | 0.00 | 0.29 | 0.29 | 90 | 1014.4 |
| 20260901020240 | 77 | 77 | 0.0 | 0.0 | 0.00 | 0.29 | 0.29 | 90 | 1014.7 |
| 20260901015735 | 78 | 99 | 1.0 | 1.0 | 0.00 | 0.29 | 0.29 | 90 | 1014.6 |
| 20260901015231 | 78 | 84 | 0.0 | 0.0 | 0.00 | 0.29 | 0.29 | 90 | 1014.1 |
| 20260901014730 | 78 | 83 | 0.0 | 0.0 | 0.00 | 0.29 | 0.29 | 89 | 1014.2 |
| 20260901014226 | 78 | 92 | 0.0 | 0.0 | 0.00 | 0.29 | 0.29 | 89 | 1014.3 |
| 20260901013722 | 78 | 125 | 1.0 | 1.0 | 0.00 | 0.29 | 0.29 | 89 | 1014.2 |
| 20260901013217 | 78 | 94 | 0.0 | 0.0 | 0.00 | 0.29 | 0.29 | 88 | 1014.3 |
| 20260901012713 | 78 | 82 | 0.0 | 0.0 | 0.00 | 0.29 | 0.29 | 88 | 1014.4 |
| 20260901012213 | 79 | 78 | 0.0 | 0.0 | 0.00 | 0.29 | 0.29 | 88 | 1014.2 |
| 20260901011708 | 79 | 78 | 1.0 | 1.0 | 0.00 | 0.29 | 0.29 | 88 | 1014.3 |
| 20260901011208 | 79 | 170 | 1.0 | 1.0 | 0.00 | 0.29 | 0.29 | 87 | 1013.9 |
| 20260901010702 | 80 | 81 | 0.0 | 0.0 | 0.00 | 0.29 | 0.29 | 86 | 1013.9 |
| 20260901010157 | 80 | 90 | 0.0 | 0.0 | 0.00 | 0.29 | 0.29 | 86 | 1014.0 |
| 20260901005656 | 80 | 102 | 1.0 | 1.0 | 0.00 | 0.29 | 0.29 | 86 | 1013.9 |
| 20260901005151 | 80 | 102 | 2.0 | 2.0 | 0.00 | 0.29 | 0.29 | 85 | 1013.9 |
| 20260901004651 | 80 | 84 | 0.0 | 1.0 | 0.00 | 0.29 | 0.29 | 85 | 1013.8 |
| 20260901004145 | 80 | 82 | 1.0 | 2.0 | 0.00 | 0.29 | 0.29 | 84 | 1013.6 |
| 20260901003635 | 80 | 80 | 0.0 | 0.0 | 0.00 | 0.29 | 0.29 | 84 | 1013.8 |
| 20260901003134 | 81 | 71 | 1.0 | 1.0 | 0.00 | 0.29 | 0.29 | 84 | 1013.9 |
| 20260901002634 | 81 | 28 | 1.0 | 1.0 | 0.00 | 0.29 | 0.29 | 83 | 1013.9 |
| 20260901002128 | 81 | 79 | 1.0 | 1.0 | 0.00 | 0.29 | 0.29 | 83 | 1013.7 |
| 20260901001624 | 81 | 258 | 1.0 | 2.0 | 0.00 | 0.29 | 0.29 | 82 | 1013.7 |
| 20260901001119 | 81 | 83 | 0.0 | 1.0 | 0.00 | 0.29 | 0.29 | 82 | 1013.9 |